GEFSSGP_con_probscp_108.txt.gz
Probability
0 0 0 0 0 0 0 0 0 0 0 0 0 1 1 1 0 0 1 5 9 12 9 6 8 10 11 11 10 8 4 2 1 0 0 0 0 0 0 0 0 0 0 0 0 0 0 0 0
0 0 0 0 0 0 0 0 1 1 1 1 2 4 3 1 0 0 1 5 11 14 11 8 9 11 10 10 10 7 4 1 0 0 0 0 0 0 0 0 0 0 0 0 0 0 0 0 0
0 0 0 0 0 0 0 1 2 3 4 4 6 9 6 2 1 1 3 8 14 15 11 9 11 11 10 9 9 6 3 1 0 0 0 0 0 0 0 0 0 0 0 0 0 0 0 0 0
0 0 0 0 0 0 0 1 3 6 7 8 12 13 9 4 2 4 8 14 19 19 15 14 15 14 10 8 8 6 3 1 0 0 0 0 0 0 0 0 0 0 0 0 0 0 0 0 0
0 0 0 0 0 0 0 1 3 6 9 12 16 16 11 7 8 12 17 21 25 28 26 23 22 19 12 9 8 7 4 1 0 0 0 0 0 0 0 0 0 0 0 0 0 0 0 0 0
0 0 0 0 0 0 0 1 2 5 9 14 18 18 14 14 19 24 26 27 30 36 36 31 26 21 16 12 10 8 5 2 1 0 0 0 0 0 0 0 0 0 0 0 0 0 0 0 0
0 0 0 0 0 0 0 1 2 6 11 16 21 21 18 20 27 32 34 35 38 41 41 36 28 22 18 15 12 8 5 3 2 1 1 1 1 0 0 0 0 0 0 0 0 0 0 0 0
0 0 0 0 0 0 0 1 3 8 14 21 24 22 21 26 33 38 40 42 43 42 40 37 32 28 22 17 13 9 5 3 1 1 2 2 1 0 0 0 0 0 0 0 0 0 0 0 0
0 0 0 0 0 0 0 0 2 8 16 23 26 28 32 39 43 43 43 43 41 38 36 35 35 34 28 20 14 10 7 4 2 2 1 1 1 1 1 1 1 1 0 0 0 1 2 1 0
0 0 0 0 0 0 0 0 2 6 13 21 32 43 50 51 48 43 38 36 34 32 31 33 34 34 29 21 15 11 9 8 6 4 2 1 1 2 2 2 2 1 0 0 0 1 2 2 1
0 0 0 0 0 0 0 1 3 6 9 18 36 52 56 53 46 38 31 28 27 26 27 29 30 29 26 19 13 10 9 9 8 6 4 2 1 1 1 1 1 0 0 0 0 1 1 2 2
0 0 0 0 0 0 2 4 7 10 13 21 36 48 50 45 39 32 27 23 22 22 22 23 24 23 19 14 9 7 6 7 7 6 3 1 0 0 0 0 0 0 0 1 1 0 0 1 1
0 0 0 0 0 1 4 6 10 15 21 29 37 42 41 35 30 27 24 21 18 17 17 18 18 16 13 9 6 4 3 4 4 3 2 1 0 0 0 0 0 0 0 1 2 1 0 0 0
0 0 0 0 0 2 4 5 9 16 26 34 37 38 34 27 22 21 20 18 15 13 13 14 14 12 8 5 3 1 1 2 2 1 1 1 0 0 0 0 0 0 0 1 2 1 0 0 0
0 0 0 0 0 1 2 3 6 14 24 31 32 31 27 22 17 17 17 16 13 11 12 13 13 10 6 2 1 0 0 1 1 2 2 1 1 1 0 0 0 0 0 0 1 1 0 0 0
0 0 0 0 0 0 1 2 5 11 18 23 24 24 21 17 14 13 14 13 11 10 12 14 13 9 4 0 0 0 0 0 1 1 1 1 0 0 0 0 0 0 0 0 0 0 0 0 0
0 0 0 0 0 0 0 1 3 8 12 15 17 17 16 12 9 9 10 10 8 8 11 13 13 10 4 0 0 0 0 0 0 0 0 0 0 0 0 0 0 0 0 0 0 0 0 0 0
0 0 0 0 0 0 0 0 2 6 9 11 11 11 10 7 4 4 6 8 8 7 8 10 12 10 5 1 1 0 0 0 0 0 0 0 0 0 0 0 0 1 0 0 0 0 0 0 0
0 0 0 0 0 0 0 0 1 4 7 9 8 6 4 3 3 2 3 5 6 5 5 7 8 7 4 3 2 1 0 0 0 0 0 0 0 0 0 0 0 0 0 0 0 0 0 0 0
0 0 0 0 0 0 0 0 1 3 5 7 6 4 1 1 3 3 1 2 3 2 3 4 5 4 2 2 2 1 0 0 0 0 0 0 0 0 0 0 0 0 0 0 0 0 0 0 0
0 0 0 0 0 0 0 0 1 2 4 5 4 2 1 0 1 2 1 0 1 1 1 2 3 2 1 1 1 0 0 0 0 0 0 0 0 0 0 0 0 0 0 0 0 0 0 0 0
0 0 0 0 0 0 0 0 0 1 2 3 2 1 0 0 0 0 0 0 1 1 0 1 1 1 0 0 0 0 0 0 0 0 0 0 0 0 0 0 0 0 0 0 0 0 0 0 0
0 0 0 0 0 0 0 0 0 0 1 1 1 0 0 0 0 0 0 1 2 2 1 0 0 0 0 0 0 0 0 0 0 0 0 0 0 0 0 0 0 0 0 0 0 0 0 0 0
0 0 0 0 0 0 0 0 0 0 0 0 0 0 1 0 0 0 0 2 3 2 1 0 0 0 0 0 0 0 0 0 0 0 0 0 0 0 0 0 0 0 0 0 0 0 0 0 0
0 0 0 0 0 0 0 0 0 0 0 0 0 0 1 1 0 0 0 1 2 1 1 0 0 0 0 0 0 0 0 0 0 0 0 0 0 0 0 0 0 0 0 0 0 0 0 0 0
0 0 0 0 0 0 0 0 0 0 0 0 0 0 0 1 0 0 0 0 0 0 0 0 0 0 0 0 0 0 0 0 0 0 0 0 0 0 0 0 0 0 0 0 0 0 0 0 0
0 0 0 0 0 0 0 0 0 0 0 0 0 0 0 0 0 0 0 0 0 0 0 0 0 0 0 0 0 0 0 0 0 0 0 0 0 0 0 0 0 0 0 0 0 0 0 0 0
0 0 0 0 0 0 0 0 0 0 0 0 0 0 0 0 0 0 0 0 0 0 0 0 0 0 0 0 0 0 0 0 0 0 0 0 0 0 0 0 0 0 0 0 0 0 0 0 0
0 0 0 0 0 0 0 0 0 0 0 0 0 0 0 0 0 0 0 0 0 0 0 0 0 0 0 0 0 0 0 0 0 0 0 0 0 0 0 0 0 0 0 0 0 0 0 0 0
0 0 0 0 0 0 0 0 0 0 0 0 0 0 0 0 0 0 0 0 0 0 0 0 0 0 0 0 0 0 0 0 0 0 0 0 0 0 0 0 0 0 0 0 0 0 0 0 0

GEFSSGP_con_probscp_114.txt.gz
Probability
0 0 0 0 0 0 0 0 0 0 0 0 0 0 0 0 1 2 2 1 2 4 4 3 3 3 4 5 5 2 0 0 0 0 0 0 0 0 0 0 0 0 0 0 0 0 0 0 0
0 0 0 0 0 0 0 0 0 0 0 0 0 0 0 0 1 3 3 3 3 4 4 4 4 4 4 7 7 4 1 0 0 0 0 0 0 0 0 0 0 0 0 0 0 0 0 0 0
0 0 0 0 0 0 0 0 0 0 0 0 0 0 0 0 0 2 5 6 5 6 5 6 7 6 5 7 8 5 1 0 0 0 0 0 0 0 0 0 0 0 0 0 0 0 0 0 0
0 0 0 0 0 0 0 0 0 0 0 0 0 0 0 1 1 3 6 6 5 6 6 7 8 7 6 6 6 5 2 1 0 0 0 0 0 0 0 0 0 0 0 0 0 0 0 0 0
0 0 0 0 0 0 0 0 0 0 0 0 0 1 3 5 5 7 9 7 3 4 6 7 7 6 5 5 5 5 5 2 1 0 0 0 0 0 0 0 0 0 0 0 0 0 0 0 0
0 0 0 0 0 0 0 0 0 0 0 0 0 4 12 15 15 16 15 10 5 6 8 8 6 4 4 4 4 6 6 3 1 0 0 0 0 0 0 0 0 0 0 0 0 0 0 0 0
0 0 0 0 0 0 0 0 0 0 0 0 0 7 21 29 29 26 21 14 10 9 10 8 5 3 3 3 4 5 5 3 1 1 0 0 0 0 0 0 0 0 0 0 0 0 0 0 0
0 0 0 0 0 0 0 0 0 0 1 2 4 11 27 40 41 36 31 22 15 12 11 8 6 4 4 3 3 4 4 3 2 2 1 0 0 0 0 0 0 0 0 0 0 0 0 0 0
0 0 0 0 0 0 0 0 0 0 2 6 13 22 37 51 53 48 42 35 25 17 13 11 9 7 5 4 3 3 2 1 2 2 1 1 0 0 0 0 0 0 0 0 0 0 0 0 0
0 0 0 0 0 0 0 0 0 0 3 11 23 34 48 59 62 56 49 44 36 25 18 14 12 10 10 8 7 6 4 2 1 1 1 1 1 1 1 1 1 0 0 0 0 0 0 0 0
0 0 0 0 0 0 0 0 0 1 5 14 28 41 52 61 65 59 50 45 40 33 24 17 14 16 17 17 13 10 7 3 2 3 3 4 4 5 5 4 2 1 0 0 0 0 0 1 1
0 0 0 0 0 0 0 0 1 3 9 18 29 41 51 58 61 55 46 42 39 35 28 21 20 23 24 21 16 10 6 3 3 5 6 7 8 9 8 6 4 1 0 0 0 0 0 1 2
0 0 0 0 0 0 0 0 2 5 12 21 29 36 43 49 52 48 41 37 36 34 30 26 25 26 26 21 14 7 4 4 4 5 6 8 9 8 6 5 4 1 0 0 0 0 0 1 1
0 0 0 0 0 0 0 0 2 7 14 20 26 28 31 36 40 39 37 33 30 29 27 27 25 25 24 21 15 8 5 4 3 3 5 7 7 4 3 3 2 1 0 0 1 0 0 0 0
0 0 0 0 0 0 0 1 4 8 13 18 21 21 22 25 27 29 30 28 24 22 22 22 23 22 22 21 17 11 6 3 1 1 3 6 5 3 2 2 1 0 0 0 0 0 0 0 0
0 0 0 0 0 0 0 3 7 10 12 15 18 18 18 19 20 20 22 21 19 17 18 20 20 21 21 19 15 10 5 1 0 1 3 4 4 3 2 2 1 1 1 0 0 0 0 0 0
0 0 0 0 0 0 0 3 7 9 10 12 14 15 15 15 17 18 18 17 17 17 18 19 20 20 20 17 14 9 5 2 1 1 2 3 2 1 1 2 2 2 2 1 0 0 0 0 0
0 0 0 0 0 0 0 2 4 6 7 9 11 12 12 12 14 14 14 14 16 16 16 17 18 20 20 18 14 10 6 3 3 2 1 1 1 0 0 1 3 3 3 2 1 0 0 0 0
0 0 0 0 0 0 0 1 3 4 5 6 9 12 10 8 8 7 7 9 11 13 13 15 16 18 20 19 15 12 8 5 3 2 1 0 0 0 0 1 2 3 3 3 1 1 1 0 0
0 0 0 0 0 0 0 1 2 3 4 6 10 11 9 6 4 3 4 5 6 8 10 13 15 17 17 16 15 12 10 6 2 1 0 0 0 0 0 1 2 3 3 3 3 2 1 0 0
0 0 0 0 0 0 0 1 1 2 3 6 10 9 6 3 2 2 3 4 5 6 8 10 13 14 13 13 12 11 9 5 1 0 0 0 0 0 0 0 1 2 2 2 2 2 1 0 0
0 0 0 0 0 0 0 0 0 1 2 5 8 6 4 2 2 2 2 4 5 6 7 9 10 10 9 9 7 6 6 4 2 1 0 0 0 0 0 0 0 1 1 1 1 1 0 0 0
0 0 0 0 0 0 0 0 0 0 1 3 6 5 3 3 2 1 1 3 4 5 6 7 7 6 6 5 4 3 4 4 3 1 0 0 0 0 0 0 0 0 0 0 0 0 0 0 0
0 0 0 0 0 0 0 0 0 0 0 2 5 6 5 4 3 1 1 1 2 3 4 4 5 5 4 3 2 2 3 3 2 1 0 0 0 0 0 0 0 0 0 0 0 0 0 0 0
0 0 0 0 0 0 0 0 0 0 0 2 6 8 7 5 4 2 1 1 2 3 2 2 3 4 2 1 1 1 1 1 1 0 0 0 0 0 0 0 0 0 0 0 0 0 0 0 0
0 0 0 0 0 0 0 0 0 0 0 2 5 7 7 6 4 2 1 0 1 2 2 2 2 2 1 0 0 1 1 1 1 0 0 0 0 0 0 0 0 0 0 0 0 0 0 0 0
0 0 0 0 0 0 0 0 0 0 0 1 4 5 5 5 3 1 0 0 1 2 3 2 2 2 2 1 1 1 2 2 2 1 0 0 0 0 0 0 0 0 0 0 0 0 0 0 0
0 0 0 0 0 0 0 0 0 0 0 1 3 4 4 4 2 1 0 0 1 2 3 3 3 3 2 2 1 2 3 3 3 2 1 0 0 0 0 0 0 0 0 0 0 0 0 0 0
0 0 0 0 0 0 0 0 0 0 0 1 2 3 3 2 1 0 0 0 1 2 1 2 3 3 3 4 4 3 3 3 3 2 1 0 0 0 0 0 0 0 0 0 0 0 0 0 0
0 0 0 0 0 0 0 0 0 0 0 1 2 3 3 1 0 0 0 1 1 1 1 2 3 4 5 6 6 4 3 3 3 2 1 0 0 0 0 0 0 0 0 0 0 0 0 0 0

GEFSSGP_con_probscp_120.txt.gz
Probability
0 0 0 0 1 1 1 1 0 0 0 0 0 3 7 7 5 4 8 21 32 26 16 12 8 5 3 2 1 0 0 0 0 0 0 0 0 0 0 0 0 0 0 0 0 0 0 0 0
0 0 0 0 1 1 1 0 0 0 0 0 1 5 10 8 5 7 16 31 35 24 14 11 9 6 4 4 2 1 0 0 0 0 0 0 0 0 0 0 0 0 0 0 0 0 0 0 0
0 0 0 0 1 1 0 0 0 0 0 0 3 10 13 10 8 16 30 40 36 22 15 15 12 8 5 4 3 1 0 0 0 0 0 0 0 0 0 0 0 0 0 0 0 0 0 0 0
0 0 0 0 0 0 0 0 0 0 0 1 8 19 22 16 16 25 38 42 34 23 19 20 17 11 6 4 3 1 0 0 0 0 0 0 0 0 0 0 0 0 0 0 0 0 0 0 0
1 1 0 0 0 0 0 0 0 0 0 2 12 28 31 25 22 27 35 38 33 27 25 23 21 15 8 6 5 3 1 0 0 0 0 0 0 0 0 0 0 0 0 0 0 0 0 0 0
0 0 0 0 0 0 0 0 0 0 0 2 13 29 34 26 23 24 27 31 33 35 31 25 21 16 9 6 6 3 1 0 0 0 0 0 0 0 0 0 0 0 0 0 0 0 0 0 0
0 0 0 0 0 0 0 0 0 0 2 4 14 29 36 32 26 23 23 28 39 45 37 26 19 13 7 6 5 3 1 0 0 0 0 1 0 0 0 0 0 0 0 0 0 0 0 0 0
0 0 0 0 0 0 0 0 0 1 4 8 19 35 46 45 37 31 30 38 52 54 40 27 17 10 5 4 4 3 2 1 0 0 1 1 0 0 0 0 0 0 0 0 0 0 0 0 0
0 0 0 0 0 0 0 0 0 2 7 16 31 47 56 57 53 48 49 58 67 62 44 29 20 12 6 5 6 5 3 2 1 1 1 1 0 0 0 1 1 0 0 0 0 0 0 0 0
0 0 0 0 0 0 0 0 0 3 13 28 45 57 63 65 66 66 68 74 77 70 52 37 28 19 14 14 13 9 6 4 2 3 3 1 1 1 2 3 3 1 0 0 0 0 0 0 0
0 0 0 0 0 0 0 0 1 6 18 35 51 61 65 69 74 75 76 79 81 74 59 46 39 33 29 25 18 11 7 5 3 3 4 3 2 3 4 5 3 1 0 0 0 0 0 0 0
0 0 0 0 0 0 0 1 4 9 20 33 46 56 62 67 72 74 74 75 76 71 62 56 53 50 46 34 20 11 8 6 4 4 5 6 5 6 6 6 3 1 0 0 0 0 0 0 0
0 0 0 0 0 0 0 2 7 13 21 29 38 47 54 58 62 64 65 67 68 65 63 63 64 62 56 44 28 18 13 10 8 7 7 9 9 8 8 7 4 2 1 1 1 0 0 0 0
0 0 0 0 0 0 1 4 11 20 26 31 35 40 45 49 50 52 56 60 60 61 64 65 63 62 56 46 36 28 21 17 14 12 11 12 12 9 8 6 4 3 1 1 1 0 0 0 0
0 0 0 0 0 0 2 6 16 27 30 31 32 35 39 42 42 44 49 53 55 58 62 60 55 52 48 41 36 31 26 22 21 19 16 13 10 7 5 3 2 1 0 0 0 0 0 0 0
0 0 0 0 0 0 1 8 20 26 26 26 27 31 36 37 39 41 44 47 50 54 59 56 48 45 42 38 34 33 30 26 24 21 16 10 6 4 3 2 1 0 0 0 0 0 0 0 0
0 0 0 0 0 0 1 8 16 20 21 23 25 29 33 33 35 39 42 43 45 50 55 53 48 43 40 38 37 35 31 27 23 18 13 6 3 3 2 1 0 1 2 1 1 1 1 0 0
0 0 0 0 0 0 1 6 11 15 18 21 26 31 32 30 32 38 42 41 42 46 50 50 46 42 39 37 36 32 27 23 18 15 10 5 2 1 0 0 1 2 3 3 2 2 2 1 1
0 0 0 0 0 0 1 5 9 11 13 18 25 32 32 30 32 38 43 41 39 41 44 43 41 39 37 34 31 27 23 19 15 11 7 4 2 1 0 0 1 2 3 3 4 4 3 2 2
0 0 0 0 0 0 1 4 8 9 11 16 22 29 32 30 32 37 38 33 31 32 34 35 35 34 33 30 26 24 22 18 14 10 6 3 2 1 1 1 1 2 3 4 5 5 3 2 3
0 0 0 0 0 0 1 4 8 11 13 16 19 24 27 26 28 29 25 19 20 23 25 27 29 30 29 24 22 21 20 17 15 12 7 4 3 1 1 1 1 1 3 4 5 5 4 3 2
0 0 0 0 0 0 0 3 8 13 15 16 17 19 19 19 21 19 14 11 13 17 20 24 26 27 24 19 17 18 16 14 13 11 9 6 3 1 1 1 1 1 2 3 3 3 3 3 2
0 0 0 0 0 0 0 1 5 10 14 17 18 17 15 15 15 14 11 9 11 14 18 23 25 22 18 15 15 15 14 12 11 10 9 6 3 1 1 2 2 1 1 1 1 1 2 2 1
0 0 0 0 0 0 0 0 2 6 10 15 17 16 14 14 14 14 11 9 10 13 15 20 22 19 15 14 13 13 12 12 10 9 7 4 3 2 2 2 2 1 0 0 0 0 1 1 0
0 0 0 0 0 0 0 0 1 4 8 11 14 14 13 13 14 14 13 12 12 13 14 18 20 18 14 11 9 9 11 11 9 7 4 2 1 2 2 2 2 1 0 0 0 0 0 0 0
0 0 0 0 0 0 0 1 2 4 6 8 9 10 10 12 14 15 14 14 14 13 13 14 15 15 12 9 7 9 11 9 6 4 2 1 1 2 3 2 1 0 0 0 0 0 0 0 0
0 0 0 0 0 0 0 1 3 4 5 6 6 5 7 9 12 14 14 13 12 12 11 10 11 11 9 7 7 9 10 8 5 3 1 1 2 4 3 2 1 0 1 1 1 0 0 0 0
0 0 0 0 0 0 0 1 3 4 4 4 3 3 4 6 9 12 12 10 9 9 8 8 9 9 7 5 5 6 7 7 5 3 2 3 5 6 4 2 1 2 2 2 1 0 0 0 1
0 0 0 0 0 0 0 0 2 3 3 2 2 4 5 6 8 10 10 8 8 9 9 9 8 7 5 4 5 6 7 8 7 5 5 7 8 6 4 2 2 3 3 3 2 0 0 1 2
0 0 0 0 0 0 0 0 1 1 2 1 2 5 8 7 8 9 9 9 10 11 11 11 8 5 5 6 7 8 7 9 10 9 9 9 8 5 4 3 3 3 3 3 2 1 0 1 2

GEFSSGP_con_probscp_126.txt.gz
Probability
5 4 3 3 3 3 3 3 2 1 4 9 11 11 10 8 5 4 4 5 7 8 8 9 12 12 8 6 6 5 4 3 3 3 3 3 3 3 3 3 3 3 3 3 3 3 3 3 3
4 3 3 3 3 2 2 3 3 3 6 11 14 13 11 8 7 7 6 9 12 12 9 10 12 12 8 6 6 5 4 3 3 3 3 3 3 3 3 3 3 3 3 3 3 3 3 3 3
3 3 3 3 3 2 2 3 3 5 8 14 17 15 9 7 8 10 12 16 19 17 12 11 13 12 8 6 6 6 4 3 3 3 3 3 3 3 3 3 3 3 3 3 3 3 3 3 3
3 3 3 3 3 3 4 5 4 6 11 18 22 19 11 8 12 18 22 24 23 21 17 16 15 13 8 7 6 6 5 4 3 3 3 3 3 3 3 3 3 3 3 3 3 3 3 3 3
3 3 3 3 3 3 5 5 6 10 18 25 29 26 17 16 26 31 29 28 27 26 24 21 18 14 10 8 7 6 6 4 3 3 3 3 3 3 3 3 3 3 3 3 3 3 3 3 3
3 3 2 1 1 2 4 4 7 15 25 31 32 30 24 27 37 38 33 31 32 32 29 25 21 17 13 10 8 6 5 4 3 3 3 3 3 3 3 3 3 3 3 3 3 3 3 3 3
3 2 1 0 0 1 3 3 7 17 28 33 34 33 32 35 38 35 32 34 36 35 31 27 24 19 15 11 8 6 4 3 3 3 3 3 3 3 3 3 3 3 3 3 3 3 3 3 3
2 1 1 0 0 1 2 3 8 20 31 36 37 38 39 40 39 36 37 39 40 37 33 32 28 22 17 11 7 5 3 3 3 3 3 3 3 3 3 3 3 3 3 3 3 3 3 3 3
1 1 1 1 0 1 2 3 11 25 36 40 40 40 43 46 46 45 48 49 46 40 36 34 32 26 19 11 6 4 3 3 3 3 3 3 3 3 3 3 3 3 3 3 3 3 3 4 4
2 2 2 1 0 0 1 4 14 28 38 41 41 42 49 54 53 53 55 54 48 42 37 33 32 28 21 13 7 4 3 3 3 3 3 3 3 3 3 3 3 3 3 3 3 3 3 3 3
1 1 1 0 0 0 1 5 14 26 32 36 41 47 55 58 57 56 55 50 44 37 33 30 28 26 21 15 10 6 4 3 3 3 3 3 3 3 3 3 3 3 3 2 2 1 1 1 1
0 0 0 0 0 0 2 7 16 24 29 34 41 50 58 59 58 57 55 49 41 33 29 27 25 21 18 15 10 6 5 4 3 3 3 3 3 3 3 3 3 2 1 1 1 0 0 0 0
0 0 0 0 0 0 2 9 18 27 34 40 46 51 56 56 54 54 54 51 45 37 31 27 22 18 16 13 8 6 5 4 3 3 3 3 3 3 3 3 2 1 0 0 0 0 0 0 0
0 0 0 0 0 0 2 8 20 33 43 50 52 51 52 50 48 49 51 51 49 44 37 30 23 18 16 12 7 6 6 5 3 3 3 3 3 3 3 3 1 0 0 0 0 0 0 0 0
0 0 0 0 0 0 1 7 19 35 48 55 54 51 49 47 45 44 44 47 48 46 41 35 28 23 20 16 11 8 7 6 4 3 3 3 3 3 3 2 1 0 0 0 0 0 0 0 0
0 0 0 0 0 0 1 5 17 32 45 51 50 49 47 44 41 38 36 40 44 44 42 38 33 30 27 23 17 12 9 6 4 4 3 3 3 3 3 2 1 0 0 0 0 0 0 0 0
0 0 0 0 0 0 1 6 15 26 36 42 43 43 42 38 35 34 34 37 40 41 41 38 36 34 31 26 21 15 10 6 4 4 4 3 3 3 3 3 2 1 0 0 0 0 0 0 0
0 0 0 0 0 1 3 8 14 21 27 32 33 34 33 31 31 32 34 35 35 36 37 37 37 36 32 28 23 18 12 6 4 4 4 4 3 3 3 2 2 1 0 0 0 0 0 0 0
0 0 0 0 1 2 4 9 15 20 22 25 26 26 28 29 29 31 33 33 32 32 33 34 35 35 32 28 24 19 12 6 4 3 4 5 4 2 1 1 1 0 0 0 0 0 0 0 0
0 0 0 0 1 2 4 8 14 18 20 21 23 24 27 30 30 30 30 28 27 27 27 28 28 29 27 24 21 18 13 9 6 4 4 5 4 2 0 0 0 0 0 0 0 0 0 0 0
0 0 0 0 0 1 2 6 11 15 17 19 19 21 24 28 29 28 26 23 20 19 19 19 19 20 19 18 17 16 14 11 8 5 3 4 3 1 0 0 0 0 0 0 0 0 0 0 0
0 0 0 0 0 0 1 3 6 11 14 15 16 17 19 23 24 23 21 17 14 13 13 12 13 13 13 12 12 13 12 9 7 4 2 2 2 1 0 0 0 0 0 0 0 0 0 0 0
0 0 0 0 0 0 0 1 3 8 11 12 13 15 17 20 21 19 17 14 12 11 10 9 10 9 8 6 7 8 7 6 5 4 2 1 1 1 0 0 0 0 0 0 0 0 0 0 0
0 0 0 0 0 0 0 1 2 5 7 9 12 14 17 18 18 17 15 13 12 11 9 8 9 7 4 3 3 4 3 3 3 2 2 1 0 0 0 0 0 0 0 0 0 0 0 0 0
0 0 0 0 1 0 1 1 1 2 4 7 11 13 15 15 14 14 13 12 12 12 10 8 8 6 2 2 3 2 2 1 2 1 1 1 0 0 0 0 0 0 0 0 0 0 0 0 0
0 0 0 0 0 0 1 1 1 1 3 6 9 11 13 11 9 10 10 11 12 12 11 9 7 5 2 2 4 4 2 2 2 2 1 0 0 0 0 0 0 0 0 0 0 0 0 0 0
0 0 0 0 0 0 0 0 1 2 4 5 6 8 8 7 6 7 8 9 10 10 10 9 7 4 3 3 4 5 4 3 3 2 1 0 0 0 0 0 0 0 0 0 0 0 0 0 0
1 1 0 0 0 0 0 0 1 2 4 4 4 4 4 4 5 7 7 7 7 7 8 8 6 4 3 2 3 4 4 3 3 2 1 0 0 0 0 0 0 0 0 0 0 0 0 0 0
2 1 0 0 0 0 0 0 0 1 2 3 3 2 2 3 5 6 6 5 5 5 6 8 6 3 1 1 1 1 2 2 1 1 0 0 0 0 0 0 0 0 0 0 0 0 0 0 0
3 1 0 0 0 0 0 0 1 2 2 1 1 1 1 2 4 6 6 4 4 4 6 9 7 3 0 0 0 0 0 1 0 0 0 0 0 0 0 0 0 0 0 0 0 0 0 0 0

GEFSSGP_con_probscp_132.txt.gz
Probability
0 0 0 0 0 0 0 0 0 0 0 0 1 1 1 1 0 0 0 2 6 6 4 2 4 8 9 8 6 3 1 0 0 0 0 0 0 0 0 0 0 0 0 0 0 0 0 0 0
0 0 0 0 0 0 0 0 0 0 0 1 1 2 3 3 1 0 0 3 7 7 4 4 8 12 12 10 7 4 1 0 0 0 0 0 0 0 0 0 0 0 0 0 0 0 0 0 0
0 0 0 0 0 0 0 0 0 0 1 2 3 4 5 4 2 0 1 4 8 8 6 8 13 16 15 12 10 6 2 0 0 0 0 0 0 0 0 0 0 0 0 0 0 0 0 0 0
0 0 0 0 0 0 0 0 0 1 2 3 5 8 7 3 1 1 3 6 10 9 8 10 16 19 17 14 11 6 3 1 0 0 0 0 0 0 0 0 0 0 0 0 0 0 0 0 0
0 0 0 0 0 0 0 0 1 3 4 6 10 12 8 3 3 5 7 10 13 13 10 13 19 21 19 16 11 5 3 2 1 0 0 0 0 0 0 0 0 0 0 0 0 0 0 0 0
0 0 0 0 0 0 0 0 1 4 8 11 14 13 9 6 10 13 12 14 18 18 17 19 21 22 19 16 11 5 1 1 1 0 0 0 0 0 0 0 0 0 0 0 0 0 0 0 0
0 0 0 0 0 0 0 0 2 6 9 11 13 13 11 11 17 21 21 21 24 27 27 26 24 21 18 16 12 5 1 0 0 0 0 1 1 0 0 0 0 0 0 0 0 0 0 0 0
0 0 0 0 0 0 0 0 3 7 10 10 10 11 14 20 26 32 34 33 34 37 37 32 27 23 20 17 13 7 2 0 0 0 1 1 1 0 0 0 0 0 0 0 0 0 0 0 0
0 0 0 0 0 0 0 1 3 8 11 11 9 13 22 34 41 43 46 46 45 47 45 39 32 28 24 21 16 9 3 1 0 0 1 1 1 0 0 0 0 0 0 0 0 0 0 0 0
0 0 0 0 0 0 0 1 5 11 13 12 15 23 37 49 51 49 50 50 50 51 49 42 35 30 27 24 18 10 5 1 0 0 0 0 0 0 0 0 0 0 0 0 0 0 0 0 0
0 0 0 0 0 0 0 1 6 11 13 14 23 38 50 55 52 47 46 46 47 48 46 41 36 32 29 27 22 14 7 3 1 0 0 0 0 0 0 0 0 0 0 0 0 0 0 0 0
0 0 0 0 0 0 1 3 7 11 13 19 33 48 54 52 46 42 41 40 40 40 38 36 34 31 28 27 25 18 10 4 1 0 0 0 0 0 0 0 0 0 0 0 0 0 0 0 0
0 0 0 0 0 1 2 5 9 12 17 27 41 50 51 48 42 39 38 37 33 30 27 28 29 27 24 24 23 17 10 4 1 0 0 0 0 0 0 0 0 0 0 0 0 0 0 0 0
0 0 0 0 1 2 4 6 10 16 23 32 41 45 45 43 40 38 38 36 30 24 21 23 25 24 21 20 19 14 7 2 0 0 0 0 0 0 0 0 0 0 0 0 0 0 0 0 0
0 0 0 0 1 2 3 3 7 16 25 30 34 37 38 36 36 36 36 34 30 26 24 24 25 23 21 19 16 11 5 2 0 0 0 0 0 0 0 0 0 0 0 0 0 0 0 0 0
0 0 0 0 0 1 1 1 5 15 23 26 30 35 36 34 32 31 31 31 31 31 29 26 24 22 21 18 14 10 5 1 0 0 0 0 0 0 0 0 0 0 0 0 0 0 0 0 0
0 0 0 0 0 0 0 0 3 12 21 25 29 35 37 35 31 28 29 29 29 30 30 26 22 20 19 18 15 11 6 2 0 0 0 0 0 0 0 0 0 0 0 0 0 0 0 0 0
0 0 0 0 0 0 0 0 2 8 16 21 25 31 33 30 26 26 27 27 26 26 25 22 18 17 19 20 18 13 7 2 0 0 0 0 0 0 0 0 0 0 0 0 0 0 0 0 0
0 0 0 0 0 0 0 0 1 6 11 14 18 21 21 19 18 20 22 23 23 22 20 16 13 14 19 20 17 13 6 2 0 1 1 1 0 0 0 0 0 0 0 0 0 0 0 0 0
0 0 0 0 0 0 0 0 1 5 7 9 12 14 13 11 11 16 19 21 21 19 16 12 8 9 14 16 15 10 5 2 1 1 2 1 0 0 0 0 0 0 0 0 0 0 0 0 0
0 0 0 0 0 0 0 0 0 2 3 5 7 10 11 8 8 13 18 20 19 16 12 9 6 5 6 10 10 7 5 4 3 3 2 1 0 0 0 0 0 0 0 0 0 0 0 0 0
0 0 0 0 0 0 0 0 0 0 1 2 4 8 10 8 7 10 15 17 15 12 8 6 4 3 3 5 6 5 4 5 6 5 3 1 1 1 1 0 0 0 0 0 0 0 0 0 0
0 0 0 0 0 0 0 0 0 0 1 1 2 5 9 10 9 9 11 12 11 8 5 3 2 3 3 3 2 1 2 5 6 6 4 3 2 2 2 1 0 0 0 0 0 0 0 0 0
0 0 0 0 0 0 0 0 0 0 1 1 1 3 8 11 11 9 9 10 9 7 4 1 1 2 3 2 1 0 1 3 5 5 4 3 3 3 2 1 0 0 0 0 0 0 0 0 0
0 0 0 0 0 0 0 0 0 0 0 0 1 3 7 9 10 10 10 9 8 6 3 1 0 1 2 1 0 0 1 3 4 4 3 3 3 2 1 0 0 0 0 0 0 0 0 0 0
0 0 0 0 0 0 0 0 0 0 0 0 1 3 7 8 8 10 11 10 8 5 3 1 0 1 1 1 0 0 1 2 2 3 3 3 2 1 0 0 0 0 0 0 0 0 0 0 0
0 0 0 0 0 0 0 0 0 0 0 0 1 3 6 7 7 10 13 12 8 4 1 0 0 0 0 0 0 0 1 1 1 1 2 1 1 0 0 0 0 0 0 0 0 0 0 0 0
0 0 0 0 0 0 0 0 0 0 0 0 0 2 4 5 6 9 12 12 8 4 1 0 0 0 0 0 0 0 0 0 0 1 2 1 0 0 0 0 0 0 0 0 0 0 0 0 0
0 0 0 0 0 0 0 0 0 0 0 0 0 1 2 3 4 6 9 9 7 4 2 1 0 0 0 0 0 1 1 1 1 1 1 1 0 0 0 0 0 0 0 0 0 0 0 0 0
0 0 0 0 0 0 0 0 0 0 0 0 0 1 2 3 3 4 5 7 6 5 3 2 1 0 0 0 0 1 1 1 1 1 1 0 0 0 0 0 0 0 0 0 0 0 0 0 0

GEFSSGP_con_probscp_138.txt.gz
Probability
0 0 0 0 0 0 0 0 0 0 0 0 0 0 0 0 0 0 0 0 1 3 5 5 5 5 4 4 3 1 0 0 0 0 0 0 0 0 0 0 0 0 0 0 0 0 0 0 0
0 0 0 0 0 0 0 0 0 0 0 0 0 0 0 0 1 1 0 0 1 3 5 5 5 4 4 4 3 1 0 0 0 0 0 0 0 0 0 0 0 0 0 0 0 0 0 0 0
0 0 0 0 0 0 0 0 0 0 0 0 0 0 0 1 2 1 1 2 3 5 7 8 6 4 4 4 3 1 0 0 0 0 0 0 0 0 0 0 0 0 0 0 0 0 0 0 0
0 0 0 0 0 0 0 0 0 0 0 0 0 0 1 2 2 2 2 4 6 7 8 9 8 5 4 5 4 2 1 0 0 0 0 0 0 0 0 0 0 0 0 0 0 0 0 0 0
0 0 0 0 0 0 0 0 0 0 0 0 0 0 2 4 4 4 5 7 8 8 8 9 8 5 4 6 5 3 1 0 0 0 0 0 0 0 0 0 0 0 0 0 0 0 0 0 0
0 0 0 0 0 0 0 0 0 0 0 0 0 1 4 7 9 8 8 7 8 8 8 9 6 4 4 6 6 4 2 0 0 0 0 0 0 0 0 0 0 0 0 0 0 0 0 0 0
0 0 0 0 0 0 0 0 0 0 0 0 0 1 6 10 14 16 13 9 8 10 10 8 4 2 2 4 4 3 1 0 0 0 0 0 0 0 0 0 0 0 0 0 0 0 0 0 0
0 0 0 0 0 0 0 0 0 0 0 0 0 2 9 17 24 27 23 15 12 13 12 8 5 3 2 1 1 1 0 0 0 0 0 0 0 0 0 0 0 0 0 0 0 0 0 0 0
0 0 0 0 0 0 0 0 0 0 0 1 2 6 17 31 39 42 36 26 21 19 15 12 10 7 3 2 2 2 0 0 0 0 0 0 0 0 0 0 0 0 0 0 0 0 0 0 0
0 0 0 0 0 0 0 0 0 0 0 2 5 14 30 45 54 55 48 39 32 26 20 17 16 12 8 7 8 6 3 2 1 0 0 1 1 1 1 1 0 0 0 0 0 0 0 0 0
0 0 0 0 0 0 0 0 0 0 0 3 9 22 40 54 60 60 54 47 40 33 27 24 21 18 16 17 15 12 8 6 3 1 1 2 2 2 2 1 0 0 0 0 0 0 0 0 0
0 0 0 0 0 0 0 0 0 0 1 4 12 28 47 57 60 59 55 50 44 38 33 30 28 27 30 29 24 17 13 10 7 4 2 2 2 2 1 1 0 0 0 0 0 0 0 0 0
0 0 0 0 0 0 0 0 0 1 2 6 15 31 46 53 53 52 52 50 45 40 37 35 34 37 42 43 35 24 18 15 13 9 5 2 1 1 0 0 0 0 0 0 0 0 0 0 0
0 0 0 0 0 0 0 0 0 2 4 8 16 27 38 45 46 47 51 52 45 39 38 38 40 43 47 48 42 32 25 23 18 12 7 2 1 1 1 0 0 0 0 0 0 0 0 0 0
0 0 0 0 0 0 0 0 1 4 6 9 15 22 31 40 44 46 51 53 46 39 38 40 43 46 47 46 43 36 30 26 21 16 9 5 3 3 2 1 1 1 1 0 0 0 0 0 0
0 0 0 0 0 0 0 0 1 4 6 9 14 22 31 39 44 44 47 49 46 40 40 40 42 47 48 46 45 41 33 28 25 21 14 8 4 3 2 1 1 1 1 0 0 0 0 0 0
0 0 0 0 0 0 0 0 1 3 5 9 14 22 31 38 40 41 41 43 43 41 41 40 43 47 50 50 50 45 38 33 29 24 17 10 4 1 1 1 1 1 0 0 0 0 0 0 0
0 0 0 0 0 0 0 0 2 3 5 9 14 20 26 30 34 36 38 39 41 42 41 40 41 45 49 54 53 46 40 36 30 24 18 11 5 2 1 1 1 0 0 0 0 0 0 0 0
0 0 0 0 0 0 0 0 1 2 3 7 13 17 20 23 29 35 38 39 40 42 42 39 38 41 47 54 54 47 41 35 29 23 17 13 7 4 2 2 1 1 0 0 0 0 0 0 0
0 0 0 0 0 0 0 0 1 1 3 6 12 16 17 20 27 33 37 38 38 38 39 38 37 38 42 49 52 51 45 36 28 23 19 13 8 5 3 3 2 2 1 0 0 0 0 0 0
0 0 0 0 0 0 0 0 1 2 2 5 11 15 15 18 23 27 29 32 34 34 34 33 33 33 35 40 46 48 44 35 27 24 20 15 10 8 5 4 3 2 2 1 1 0 0 0 0
0 0 0 0 0 0 0 0 1 1 1 4 10 13 14 15 17 19 22 26 29 30 30 28 26 27 29 33 37 39 36 31 28 26 21 15 13 11 7 5 4 3 3 2 1 0 0 0 0
0 0 0 0 0 0 0 0 0 1 1 3 6 9 11 12 13 14 18 23 26 26 26 23 20 21 24 27 31 32 29 28 28 25 19 14 13 12 8 6 4 4 4 3 1 1 0 0 0
0 0 0 0 0 0 0 0 0 0 1 1 4 6 9 10 11 13 16 21 24 23 21 18 15 17 18 19 23 26 25 25 24 20 15 12 12 11 8 6 5 4 4 3 3 2 1 0 0
0 0 0 0 0 0 0 0 0 0 0 1 3 4 6 8 11 13 16 20 22 21 18 16 14 14 12 12 14 16 18 18 17 13 10 9 10 11 9 7 6 5 3 3 4 3 1 0 0
0 0 0 0 0 0 0 0 0 0 0 1 2 4 5 6 9 12 15 18 20 18 17 15 14 13 9 8 9 10 11 13 14 11 7 7 9 10 9 9 7 5 3 3 3 2 1 0 0
0 0 0 0 0 0 0 0 0 0 0 1 3 3 3 2 4 9 13 16 16 15 14 12 12 11 9 8 8 7 7 10 13 11 8 7 9 10 10 9 7 5 3 2 2 1 0 0 0
0 0 0 0 0 0 0 0 0 0 0 1 3 3 1 1 3 7 11 14 13 12 11 9 8 9 9 7 6 5 5 7 10 11 9 9 9 10 10 9 7 5 3 1 1 0 0 0 0
0 0 0 0 0 0 0 0 0 0 0 0 2 3 2 2 5 8 12 13 13 11 9 7 7 9 9 7 5 2 3 6 8 9 9 9 9 9 9 8 6 5 3 1 0 0 0 0 0
0 0 0 0 0 0 0 0 0 0 0 0 1 3 5 5 6 9 13 14 14 11 9 7 7 9 9 8 4 1 2 5 7 8 9 8 8 8 8 7 5 4 2 0 0 0 0 0 0

GEFSSGP_con_probscp_144.txt.gz
Probability
0 0 0 0 1 2 2 0 0 0 0 0 0 1 2 2 1 1 4 16 27 22 11 7 7 5 2 0 0 0 0 0 0 0 0 0 0 0 0 0 0 0 0 0 0 0 0 0 0
0 0 0 0 1 1 1 0 0 0 0 0 0 0 1 1 1 2 9 24 31 21 11 8 7 6 3 1 0 0 0 0 0 0 0 0 0 0 0 0 0 0 0 0 0 0 0 0 0
0 0 0 0 1 1 0 0 0 0 0 0 0 0 0 0 2 7 18 31 31 20 12 11 11 7 4 2 1 0 0 0 0 0 0 0 0 0 0 0 0 0 0 0 0 0 0 0 0
0 0 0 0 0 0 0 0 0 0 0 0 1 2 2 3 6 14 23 27 23 18 16 17 16 10 5 3 1 0 0 0 0 0 0 0 0 0 0 0 0 0 0 0 0 0 0 0 0
0 0 0 0 0 0 0 0 0 0 0 1 3 5 6 7 11 16 20 19 17 18 20 21 20 15 8 4 1 0 0 0 0 0 0 0 0 0 0 0 0 0 0 0 0 0 0 0 0
0 0 0 0 0 0 0 0 0 0 0 2 5 8 11 13 14 15 16 16 18 23 24 22 21 17 9 4 2 1 0 0 0 0 0 0 0 0 0 0 0 0 0 0 0 0 0 0 0
0 0 0 0 0 0 0 0 0 0 1 2 5 10 18 21 18 15 16 18 24 30 28 22 17 12 6 3 2 1 0 0 0 0 0 0 0 0 0 0 0 0 0 0 0 0 0 0 0
0 0 0 0 0 0 0 0 0 0 1 2 5 15 28 31 25 21 21 25 33 37 31 22 14 9 5 2 1 0 0 0 0 0 0 0 0 0 0 0 0 0 0 0 0 0 0 0 0
0 0 0 0 0 0 0 0 0 0 1 4 11 25 38 38 31 29 30 36 44 45 35 24 18 12 6 3 2 1 0 0 0 0 0 0 0 0 0 0 0 0 0 0 0 0 0 0 0
0 0 0 0 0 0 0 0 0 1 2 9 22 37 43 40 37 38 40 47 57 56 44 33 26 17 9 7 6 4 2 0 0 0 0 0 0 0 0 0 0 0 0 0 0 0 0 0 0
0 0 0 0 0 0 0 0 0 1 3 11 27 44 49 44 43 46 50 57 66 66 55 46 37 26 20 17 13 9 6 2 0 0 0 0 0 0 0 0 0 0 0 0 0 0 0 0 0
0 0 0 0 0 0 0 0 0 0 3 11 27 46 52 49 49 54 58 64 71 72 67 61 52 43 40 34 22 14 11 7 3 2 1 0 0 0 0 0 0 0 0 0 0 0 0 0 0
0 0 0 0 0 0 0 0 0 1 5 13 28 44 51 51 55 61 65 69 75 76 75 75 71 62 58 50 32 22 19 15 10 7 3 1 1 2 2 1 0 0 0 0 0 0 0 0 0
0 0 0 0 0 0 0 0 0 2 8 15 26 41 50 54 60 68 73 76 78 79 79 82 80 75 70 58 42 32 28 25 22 17 10 5 5 8 7 4 2 2 2 1 0 0 0 0 0
0 0 0 0 0 0 0 0 2 4 9 14 22 37 50 58 64 72 79 81 81 81 83 83 79 76 73 62 49 40 36 36 36 33 22 12 12 15 12 6 3 3 4 3 2 0 0 0 0
0 0 0 0 0 0 0 1 4 5 8 13 18 31 50 61 64 70 77 79 80 83 86 83 75 72 72 66 56 47 44 46 49 45 32 21 17 17 13 8 4 3 4 4 2 0 0 0 0
0 0 0 0 0 0 0 1 4 4 6 11 17 28 48 60 65 71 74 75 77 80 82 78 73 72 73 69 60 54 51 53 54 48 38 28 21 16 12 10 7 4 4 3 2 0 0 0 0
0 0 0 0 0 0 0 1 3 3 4 8 17 30 47 60 68 73 74 73 75 76 75 73 72 74 73 69 62 56 54 56 55 48 40 32 24 16 12 12 11 7 3 3 2 1 0 0 0
0 0 0 0 0 0 0 1 2 3 2 5 17 34 48 59 68 73 73 72 73 74 74 71 71 72 70 67 61 54 54 56 55 49 43 35 26 18 13 12 12 8 5 4 2 1 0 0 0
0 0 0 0 0 0 0 1 2 4 3 5 17 34 46 54 64 70 70 71 71 71 71 70 70 69 66 64 59 53 52 53 52 49 45 36 27 18 13 12 10 8 7 5 3 2 1 0 0
0 0 0 0 0 0 0 1 4 7 5 6 15 29 38 47 60 68 69 68 65 62 62 63 66 66 63 61 58 51 46 45 47 47 43 36 27 18 14 14 13 10 8 6 3 2 1 0 0
0 0 0 0 0 0 0 2 5 8 6 7 14 23 30 39 55 65 67 63 57 53 52 55 59 61 59 57 53 46 41 41 44 45 41 37 29 20 16 18 18 14 10 6 3 1 0 0 0
0 0 0 0 0 0 0 1 4 6 6 9 14 18 23 34 47 58 60 55 49 46 47 50 53 54 54 51 47 41 38 40 44 45 43 39 31 21 17 20 21 18 14 9 4 1 1 1 1
0 0 0 0 0 0 0 1 2 4 5 9 13 16 21 29 40 48 49 45 43 42 44 47 48 48 47 44 40 35 35 40 46 45 41 37 30 23 20 19 19 19 16 13 8 4 3 2 2
0 0 0 0 0 0 0 1 2 3 3 6 10 15 22 27 33 39 40 39 40 40 40 42 43 42 40 35 31 28 29 36 42 41 34 30 27 23 22 20 19 19 17 14 11 6 4 3 3
0 0 0 0 0 0 0 1 2 3 2 3 7 13 20 24 27 30 31 34 36 35 36 36 36 36 33 29 25 23 24 28 33 34 29 24 22 20 20 22 20 19 16 13 9 6 5 4 4
0 0 0 0 0 0 1 1 2 3 2 3 7 11 14 18 22 22 24 29 32 33 33 32 31 29 28 25 21 18 18 20 23 27 27 23 19 18 19 20 19 16 14 11 8 6 6 6 5
0 0 0 0 0 0 1 2 2 3 4 6 10 11 10 13 17 18 21 24 28 30 31 30 27 25 25 22 17 14 16 17 19 22 25 25 23 22 19 16 14 13 12 10 9 7 7 6 4
0 0 0 0 0 0 0 1 2 3 5 8 12 12 10 11 14 18 20 22 23 26 28 27 23 22 21 19 16 15 16 17 15 16 20 26 29 26 19 14 13 12 11 11 10 8 6 5 4
0 0 0 0 0 0 0 1 2 3 5 8 11 12 10 9 14 20 22 20 21 24 26 24 22 20 19 17 16 16 17 17 12 12 18 26 31 26 18 15 14 12 11 12 10 7 5 5 5

GEFSSGP_con_probscp_150.txt.gz
Probability
3 1 0 0 0 0 0 0 0 0 1 2 2 2 2 1 0 0 0 2 5 6 6 4 3 2 1 0 0 0 0 0 0 0 0 0 0 0 0 0 0 0 0 0 0 0 0 0 0
1 0 0 0 0 0 0 0 0 0 2 3 3 1 1 2 2 1 1 3 6 7 6 5 4 3 1 0 0 0 0 0 0 0 0 0 0 0 0 0 0 0 0 0 0 0 0 0 0
0 0 0 0 0 0 0 0 1 3 5 7 5 2 1 4 7 5 5 8 9 8 6 6 7 6 3 1 0 0 0 0 0 0 0 0 0 0 0 0 0 0 0 0 0 0 0 0 0
0 0 0 0 0 0 0 0 2 8 11 11 8 3 1 7 14 14 14 14 13 10 7 7 8 8 4 2 0 0 0 0 0 0 0 0 0 0 0 0 0 0 0 0 0 0 0 0 0
0 0 0 0 0 0 0 0 4 12 16 15 12 7 3 11 24 26 21 18 15 12 8 7 9 8 5 2 0 0 0 0 0 0 0 0 0 0 0 0 0 0 0 0 0 0 0 0 0
0 0 0 0 0 0 0 0 5 15 20 19 16 11 7 15 28 29 22 17 16 15 11 8 9 8 5 2 0 0 0 0 0 0 0 0 0 0 0 0 0 0 0 0 0 0 0 0 0
0 0 0 0 0 0 0 0 5 16 21 20 18 13 10 18 26 25 19 16 17 17 15 10 7 7 5 2 1 0 0 0 0 0 0 0 0 0 0 0 0 0 0 0 0 0 0 0 0
0 0 0 0 0 0 0 0 5 15 21 19 17 14 18 27 32 27 20 18 18 17 15 11 7 6 3 2 1 1 0 0 0 0 0 0 0 0 0 0 0 0 0 0 0 0 0 0 0
0 0 0 0 0 0 0 1 7 18 24 24 22 24 34 43 42 35 28 24 22 19 16 13 10 7 5 3 2 2 1 1 0 0 0 0 0 0 0 0 0 0 0 0 0 0 0 0 0
0 0 0 0 0 0 0 1 8 20 30 34 37 42 50 54 50 44 36 30 28 24 19 16 13 10 9 7 5 4 3 2 1 0 0 0 0 0 0 0 0 0 0 0 0 0 0 0 0
0 0 0 0 0 0 0 1 9 21 32 41 49 53 55 56 54 50 43 36 33 28 22 18 14 10 10 9 7 6 5 4 2 1 0 0 0 0 0 0 0 0 0 0 0 0 0 0 0
0 0 0 0 0 0 0 1 6 16 28 40 50 52 52 55 57 54 49 44 38 31 24 19 14 10 9 8 7 6 6 4 2 1 0 0 0 0 0 0 0 0 0 0 0 0 0 0 0
0 0 0 0 0 0 0 0 4 12 25 39 50 50 49 55 60 57 53 50 44 36 27 20 14 10 8 6 6 5 4 3 1 0 0 0 0 0 0 0 0 0 0 0 0 0 0 0 0
0 0 0 0 0 0 0 1 5 16 30 43 49 48 47 54 61 61 59 55 47 39 31 23 15 10 7 6 6 5 3 2 1 0 0 0 0 0 0 0 0 0 0 0 0 0 0 0 0
0 0 0 0 0 0 1 2 9 22 36 45 47 45 46 51 58 64 64 59 51 44 36 27 19 13 10 8 6 5 4 2 0 0 0 0 0 0 0 0 0 0 0 0 0 0 0 0 0
0 0 0 0 0 0 1 2 10 23 34 40 42 44 48 51 55 62 65 63 58 51 42 34 26 19 14 10 7 5 4 2 1 0 0 0 0 0 0 0 0 0 0 0 0 0 0 0 0
0 0 0 0 0 0 0 1 8 20 28 32 36 43 50 54 55 58 63 65 63 56 47 40 35 28 20 15 11 7 5 3 2 1 0 0 0 0 0 0 0 0 0 0 0 0 0 0 0
0 0 0 0 0 0 0 1 6 16 22 26 31 40 51 55 55 57 62 66 65 58 50 45 42 35 25 19 16 13 8 6 6 5 3 2 1 0 0 0 0 0 0 0 0 0 0 0 0
0 0 0 0 0 0 0 2 7 13 19 24 29 37 49 55 55 58 63 67 65 59 52 49 46 40 31 23 21 19 15 12 12 11 8 5 3 2 0 0 0 0 0 0 0 0 0 0 0
0 0 0 0 0 0 1 3 7 12 15 20 25 34 45 51 56 61 64 65 64 59 54 49 47 44 36 29 25 23 20 17 14 13 12 9 6 4 1 0 0 0 0 0 0 0 0 0 0
0 0 0 0 0 0 1 2 4 8 10 14 20 28 38 47 53 58 60 60 57 53 50 46 44 44 40 33 29 26 22 17 14 13 13 11 8 5 2 0 0 0 0 0 0 0 0 0 0
0 0 0 0 0 0 1 1 2 4 7 10 16 24 33 41 46 48 50 51 49 44 42 41 41 42 41 35 30 27 23 18 15 14 13 10 8 5 2 1 0 0 0 0 0 0 0 0 0
0 0 0 0 0 0 0 0 0 2 5 10 15 21 28 35 37 37 39 42 43 41 38 37 38 39 39 36 31 25 22 19 18 16 13 9 7 5 4 2 1 0 0 0 0 0 0 0 0
0 0 0 0 0 0 0 0 0 1 5 10 15 19 23 28 30 30 31 34 36 37 36 34 33 33 33 32 28 22 19 20 22 20 14 9 7 6 4 3 1 0 0 0 0 0 0 0 0
0 0 0 0 0 0 0 0 0 1 4 10 14 16 20 22 24 26 26 27 29 31 32 30 28 26 25 25 21 16 15 17 20 20 15 10 9 8 6 4 2 1 0 0 0 0 0 0 0
0 0 0 0 0 0 0 0 0 1 5 9 11 12 14 16 19 21 23 23 23 24 26 26 24 21 19 18 15 12 10 11 13 15 14 11 9 8 6 5 4 1 0 0 0 0 0 0 0
0 0 0 0 0 0 0 0 0 1 5 8 9 10 11 11 13 16 18 18 17 18 21 23 20 16 13 12 11 10 8 7 8 11 11 8 7 6 5 5 4 2 0 0 0 0 0 0 0
0 0 0 0 0 0 0 0 0 1 3 5 7 9 10 9 10 11 12 14 15 16 18 18 15 11 8 8 7 7 6 5 5 8 8 5 3 3 3 4 3 1 0 0 0 0 0 0 0
0 0 0 0 0 0 0 0 0 1 2 3 5 8 9 8 7 9 10 13 15 15 15 14 11 7 5 4 4 4 3 3 3 4 4 2 1 2 3 3 3 1 0 0 0 0 0 0 0
0 0 0 0 0 0 0 0 0 1 2 3 4 6 7 5 6 9 10 13 15 14 13 12 9 6 2 2 2 1 1 1 1 2 1 1 1 2 2 3 3 2 1 0 0 0 0 0 0

GEFSSGP_con_probscp_156.txt.gz
Probability
0 0 0 0 0 0 0 0 0 0 0 0 1 2 2 1 0 0 1 2 3 3 1 1 2 2 2 2 3 3 3 1 0 0 0 0 0 0 0 0 0 0 0 0 0 0 0 0 0
0 0 0 0 0 0 0 0 0 0 0 0 0 1 3 2 0 0 1 3 4 3 2 1 2 2 1 2 3 3 3 2 1 0 0 0 0 0 0 0 0 0 0 0 0 0 0 0 0
0 0 0 0 0 0 0 0 0 0 0 0 0 2 3 2 0 0 1 4 5 4 3 2 3 3 1 1 2 3 3 2 1 0 0 0 0 0 0 0 0 0 0 0 0 0 0 0 0
0 0 0 0 0 0 0 0 0 0 0 0 1 3 4 2 1 2 4 5 6 5 3 2 2 2 2 1 1 2 2 1 0 0 0 0 0 0 0 0 0 0 0 0 0 0 0 0 0
0 0 0 0 0 0 0 0 0 0 0 2 3 5 4 2 2 5 7 6 6 6 4 2 1 1 1 1 0 1 1 0 0 0 0 0 0 0 0 0 0 0 0 0 0 0 0 0 0
0 0 0 0 0 0 0 0 0 0 1 4 6 6 4 2 3 7 7 5 5 5 3 2 0 0 0 0 0 0 0 0 0 0 0 0 0 0 0 0 0 0 0 0 0 0 0 0 0
0 0 0 0 0 0 0 0 0 0 1 4 6 5 3 2 5 8 7 4 2 3 3 1 0 0 0 0 0 0 0 0 0 0 0 0 0 0 0 0 0 0 0 0 0 0 0 0 0
0 0 0 0 0 0 0 0 0 1 2 3 3 3 5 9 12 13 11 6 2 1 1 1 0 0 0 0 0 0 0 0 0 0 0 0 0 0 0 0 0 0 0 0 0 0 0 0 0
0 0 0 0 0 0 0 0 1 2 3 3 2 5 16 27 28 24 19 13 6 2 1 0 0 0 0 0 0 0 1 0 0 0 0 0 0 0 0 0 0 0 0 0 0 0 0 0 0
0 0 0 0 0 0 0 0 1 3 5 5 6 17 36 46 41 32 25 17 9 3 1 0 0 0 0 0 0 0 0 0 0 0 0 0 0 0 0 0 0 0 0 0 0 0 0 0 0
0 0 0 0 0 0 0 0 1 4 4 7 16 34 51 54 44 32 25 18 10 4 2 1 1 0 0 0 0 0 0 0 0 0 0 0 0 0 0 0 0 0 0 0 0 0 0 0 0
0 0 0 0 0 0 0 0 1 3 3 10 27 46 56 53 41 27 21 17 12 7 6 4 2 1 1 0 0 0 0 0 0 0 0 0 0 0 0 0 0 0 0 0 0 0 0 0 0
0 0 0 0 0 0 1 1 1 1 5 17 36 49 53 51 39 25 18 19 17 14 12 9 5 3 2 1 1 1 1 0 0 0 0 0 0 0 0 0 0 0 0 0 0 0 0 0 0
0 0 0 0 0 0 1 2 1 3 11 27 41 46 46 45 40 30 24 24 23 19 16 13 9 6 5 4 4 4 3 1 0 0 0 0 0 0 0 0 0 0 0 0 0 0 0 0 0
0 0 0 0 0 0 1 2 2 6 19 33 40 40 37 36 38 37 33 31 27 23 19 15 13 12 10 8 7 6 4 2 1 0 0 0 0 0 0 0 0 0 0 0 0 0 0 0 0
0 0 0 0 0 0 0 1 1 9 24 33 33 32 30 29 32 35 35 33 29 26 22 18 16 15 14 11 8 7 5 2 1 0 0 0 0 0 0 0 0 0 0 0 0 0 0 0 0
0 0 0 0 0 0 0 0 1 9 24 30 27 25 25 26 28 32 33 31 30 29 26 23 21 19 16 13 10 6 4 1 0 0 0 0 0 0 0 0 0 0 0 0 0 0 0 0 0
0 0 0 0 0 0 0 0 1 8 20 24 21 19 20 22 25 30 32 31 31 32 30 29 28 25 20 16 11 7 4 1 0 0 0 0 0 0 0 0 0 0 0 0 0 0 0 0 0
0 0 0 0 0 0 0 0 3 8 14 16 15 14 15 17 20 27 32 32 34 36 34 32 31 29 24 19 14 9 6 3 1 0 0 0 0 0 0 0 0 0 0 0 0 0 0 0 0
0 0 0 0 0 0 0 1 5 8 9 9 9 9 12 17 21 26 32 35 37 40 38 33 30 28 24 19 15 11 8 6 3 1 0 0 0 0 0 0 0 0 0 0 0 0 0 0 0
0 0 0 0 0 0 0 2 5 6 5 5 5 6 10 18 24 28 32 35 37 40 41 36 32 28 24 19 16 13 10 7 5 2 1 1 2 1 0 0 0 0 0 0 0 0 0 0 0
0 0 0 0 0 0 0 1 2 2 1 1 2 4 8 16 24 28 31 33 34 37 40 40 36 31 26 21 19 17 14 10 7 6 4 4 3 2 1 1 1 0 0 0 0 0 0 0 0
0 0 0 0 0 0 0 0 0 0 0 0 1 4 7 13 20 25 28 31 32 33 35 36 34 31 28 25 23 21 18 13 10 9 8 7 5 3 3 2 2 1 0 0 0 0 0 0 0
0 0 0 0 0 0 0 0 0 0 0 0 0 2 6 13 17 21 26 29 29 29 30 30 30 30 29 26 25 23 21 17 13 11 9 8 6 4 3 3 2 1 0 0 0 0 0 0 0
0 0 0 0 0 0 0 0 0 0 0 0 0 1 6 12 17 20 24 26 24 24 25 26 26 28 27 25 24 24 21 18 14 11 9 9 7 5 4 3 2 0 0 0 0 0 0 0 0
0 0 0 0 0 0 0 0 0 0 0 0 1 2 6 11 15 19 20 19 18 19 21 22 22 22 22 22 21 21 19 16 12 11 11 10 8 6 4 4 3 1 0 0 0 0 0 0 0
0 0 0 0 0 0 0 0 0 0 0 1 2 3 5 8 11 13 13 11 10 13 16 17 15 14 15 15 15 14 12 11 10 10 11 11 8 5 4 5 5 3 1 0 0 0 0 0 0
0 0 0 0 0 0 0 0 0 0 0 2 3 3 3 4 6 7 7 6 5 7 11 13 11 10 10 9 8 7 7 7 7 8 9 9 7 4 3 5 5 3 1 0 0 0 0 0 0
0 0 0 0 0 0 0 0 0 0 0 1 2 2 1 2 2 3 4 4 2 3 7 8 8 7 7 6 5 4 5 6 6 6 6 6 5 4 3 3 4 3 1 0 0 0 0 0 0
0 0 0 0 0 0 0 0 0 0 0 0 1 1 2 2 1 1 1 2 1 2 4 5 6 6 6 6 5 4 5 6 6 4 4 5 4 4 3 2 3 2 1 0 0 0 0 0 0

GEFSSGP_con_probscp_162.txt.gz
Probability
0 0 1 2 2 1 0 0 0 0 0 0 0 0 0 0 0 0 1 1 2 1 0 0 0 0 0 0 0 1 2 2 1 0 0 0 0 0 0 0 0 0 0 0 0 0 0 0 0
0 0 0 1 1 0 0 0 0 0 0 0 0 0 0 0 0 1 1 2 2 2 0 0 0 0 0 0 1 2 3 2 1 0 0 0 0 0 0 0 0 0 0 0 0 0 0 0 0
0 0 0 0 0 0 0 0 0 0 0 0 0 0 0 0 0 1 3 4 3 2 0 0 0 0 0 0 1 2 3 2 1 0 0 0 0 0 0 0 0 0 0 0 0 0 0 0 0
0 0 0 0 0 0 0 0 0 0 0 0 0 0 0 0 0 2 4 6 5 3 1 0 0 0 1 2 3 3 1 1 0 0 0 0 0 0 0 0 0 0 0 0 0 0 0 0 0
0 0 0 0 0 0 0 0 0 0 0 0 0 0 1 1 2 4 6 7 6 3 1 0 0 1 2 4 5 3 1 0 0 0 0 0 0 0 0 0 0 0 0 0 0 0 0 0 0
0 0 0 0 0 0 0 0 0 0 0 0 0 1 2 3 4 6 6 6 6 3 1 0 0 1 3 5 6 4 1 0 0 0 0 0 0 0 0 0 0 0 0 0 0 0 0 0 0
0 0 0 0 0 0 0 0 0 0 0 0 0 1 5 9 8 6 6 6 5 3 1 0 0 0 1 3 4 3 1 0 0 0 0 0 0 0 0 0 0 0 0 0 0 0 0 0 0
0 0 0 0 0 0 0 0 0 0 0 0 0 1 9 17 14 7 5 5 4 2 1 0 0 0 0 1 2 2 1 0 0 0 0 0 0 0 0 0 0 0 0 0 0 0 0 0 0
0 0 0 0 0 0 0 0 0 0 0 0 1 4 16 28 25 15 9 6 4 2 1 0 0 0 0 0 0 0 0 0 0 0 0 0 0 0 0 0 0 0 0 0 0 0 0 0 0
0 0 0 0 0 0 0 0 0 0 0 1 4 12 27 38 35 25 16 10 5 2 1 0 0 0 0 0 0 0 0 0 0 0 0 0 0 0 0 0 0 0 0 0 0 0 0 0 0
0 0 0 0 0 0 0 0 0 0 0 1 7 22 36 43 41 32 22 13 7 4 2 1 1 2 1 0 0 0 1 0 0 0 0 0 0 0 0 0 0 0 0 0 0 0 0 0 0
0 0 0 0 0 0 0 0 0 0 0 1 10 27 38 42 41 34 24 16 10 6 4 4 4 4 4 3 2 2 2 1 1 2 1 0 0 0 0 0 0 0 0 0 0 0 0 0 0
0 0 0 0 0 0 0 0 0 0 0 3 12 27 36 37 38 34 25 19 14 9 7 7 7 6 6 7 6 5 5 3 2 3 3 1 0 0 0 0 0 0 0 0 0 0 0 0 0
0 0 0 0 0 0 0 0 0 0 1 5 12 22 30 35 36 35 30 25 20 13 10 11 11 9 8 8 8 8 7 5 4 4 4 2 1 1 0 0 0 0 0 0 0 0 0 0 0
0 0 0 0 0 0 0 0 0 0 1 5 9 17 26 34 36 35 34 30 24 17 15 15 14 12 10 9 8 8 7 6 4 4 5 4 3 2 1 1 1 1 0 0 0 0 0 0 0
0 0 0 0 0 0 0 0 0 0 1 4 8 15 24 31 33 32 31 29 24 21 22 20 18 16 14 12 10 8 7 5 5 7 8 5 3 3 3 2 2 2 1 0 0 0 0 0 0
0 0 0 0 0 0 0 0 0 0 1 3 8 15 23 30 33 31 28 26 23 23 26 25 22 19 16 14 12 10 8 6 6 9 9 7 5 4 4 3 3 2 1 0 0 0 0 0 0
0 0 0 0 0 0 0 0 0 0 1 3 8 14 20 27 33 34 30 26 23 22 27 29 27 24 20 18 16 13 11 10 7 7 7 7 6 6 5 4 4 3 1 0 0 0 0 0 0
0 0 0 0 0 0 0 0 0 1 1 3 7 11 15 22 29 34 34 32 30 27 28 31 31 30 30 28 24 19 17 15 10 8 7 7 6 6 5 4 4 2 1 0 0 1 1 0 0
0 0 0 0 1 1 0 0 0 0 0 2 4 7 11 17 26 34 37 39 39 37 36 36 36 37 39 38 33 26 22 18 13 12 12 9 6 5 5 4 3 1 0 0 1 1 1 1 1
0 0 0 0 0 1 1 0 0 0 0 2 4 7 10 15 25 37 42 43 45 45 44 43 43 43 44 44 39 30 25 20 15 15 17 16 11 8 6 6 4 2 1 1 1 1 1 0 0
0 0 0 0 0 0 0 0 0 1 1 3 7 11 12 15 23 35 43 45 46 46 46 47 48 48 49 50 43 33 25 19 16 17 19 20 17 12 10 9 8 5 3 2 2 2 2 1 0
0 0 0 0 0 0 0 0 0 1 2 3 6 9 11 14 21 31 38 41 41 42 43 45 48 51 54 53 47 36 27 21 19 20 21 21 21 17 12 12 12 10 7 6 7 8 5 3 2
0 0 0 0 0 0 0 0 0 1 1 2 4 5 7 13 20 26 32 38 39 39 38 39 44 51 55 54 48 40 32 29 29 28 26 23 22 20 16 15 17 16 12 11 15 15 12 9 7
0 0 0 0 0 0 0 0 1 1 1 2 4 6 8 14 20 25 31 37 39 37 34 35 39 45 49 48 45 40 37 38 37 33 29 23 20 21 20 19 20 19 16 15 17 18 17 16 15
0 0 0 0 0 0 0 0 1 1 1 3 7 11 14 17 22 27 31 33 33 31 29 32 36 37 38 38 36 35 36 38 35 30 25 21 18 20 22 21 22 21 17 16 17 17 19 20 20
0 0 0 0 0 0 0 0 0 0 1 3 8 13 17 21 24 26 29 30 27 24 24 28 31 30 30 31 30 30 31 31 29 26 24 22 20 19 21 22 23 22 19 17 16 17 18 20 20
0 0 0 0 0 0 0 0 0 0 0 3 7 12 16 20 23 24 26 27 25 22 21 24 27 27 27 29 29 27 25 22 22 23 23 24 22 20 18 19 22 23 20 16 15 16 17 18 18
0 0 0 0 0 0 0 0 0 0 1 3 8 11 13 16 18 21 22 24 24 22 21 22 24 24 24 26 26 23 19 15 15 18 20 22 21 18 15 15 18 19 17 15 15 16 15 14 14
0 0 0 0 0 0 0 0 0 0 1 4 8 10 11 12 15 17 19 22 24 23 20 20 21 20 21 23 22 19 16 12 12 15 17 19 19 16 15 15 16 16 14 15 17 15 12 12 11

GEFSSGP_con_probscp_168.txt.gz
Probability
1 3 8 14 17 11 3 0 0 0 0 0 0 0 0 0 0 0 1 3 3 1 0 0 0 0 0 0 0 0 0 0 0 0 0 0 0 0 0 0 0 0 0 0 0 0 0 0 0
1 2 6 11 12 6 1 0 0 0 0 0 0 0 0 0 0 0 1 3 2 0 0 1 1 0 0 0 0 0 0 0 0 0 0 0 0 0 0 0 0 0 0 0 0 0 0 0 0
0 1 4 7 5 2 0 0 0 0 0 0 0 0 0 0 0 1 2 1 0 0 1 2 2 1 0 0 0 0 0 0 0 0 0 0 0 0 0 0 0 0 0 0 0 0 0 0 0
0 1 2 3 2 0 0 0 0 0 0 0 0 0 0 0 0 1 2 1 0 0 1 3 3 1 0 0 0 0 0 0 0 0 0 0 0 0 0 0 0 0 0 0 0 0 0 0 0
0 0 1 1 0 0 0 0 0 0 0 0 0 0 1 1 2 2 1 1 1 1 1 3 3 2 1 1 0 0 0 0 0 0 0 0 0 0 0 0 0 0 0 0 0 0 0 0 0
0 0 1 0 0 0 0 0 0 0 0 0 1 2 2 3 3 3 2 2 3 3 2 3 2 2 2 1 0 0 0 0 0 0 0 0 0 0 0 0 0 0 0 0 0 0 0 0 0
0 0 0 0 0 0 0 0 0 0 0 0 1 4 4 4 3 4 4 5 7 7 4 2 1 1 2 1 0 0 0 0 0 0 0 0 0 0 0 0 0 0 0 0 0 0 0 0 0
0 0 0 0 0 0 0 0 0 0 0 0 1 3 5 5 4 4 5 7 10 10 6 3 1 0 1 1 0 0 0 0 0 0 0 0 0 0 0 0 0 0 0 0 0 0 0 0 0
0 0 0 0 0 0 0 0 0 0 0 1 2 5 7 7 5 5 6 9 13 14 9 4 1 0 0 0 0 0 0 0 0 0 0 0 0 0 0 0 0 0 0 0 0 0 0 0 0
0 0 0 0 0 0 0 0 0 0 0 3 8 12 10 7 6 6 7 12 17 17 13 7 3 0 1 1 0 0 0 0 0 0 0 0 0 0 0 0 0 0 0 0 0 0 0 0 0
0 0 0 0 0 0 0 0 0 0 1 5 13 17 13 9 9 9 10 16 20 18 15 12 7 3 3 3 1 0 0 0 0 0 0 0 0 0 0 0 0 0 0 0 0 0 1 0 0
0 0 0 0 0 0 0 0 0 0 1 5 16 21 17 14 13 13 16 23 25 21 20 20 14 9 9 8 3 1 1 1 1 1 0 0 0 0 0 0 0 0 0 0 0 0 1 1 0
0 0 0 0 0 0 0 0 0 1 2 7 19 27 24 20 20 23 28 34 34 30 28 28 24 19 20 17 9 4 4 4 4 2 1 1 1 1 1 1 0 0 0 0 0 1 2 1 1
0 0 0 0 0 0 0 0 1 3 5 12 24 32 29 27 30 36 41 45 44 39 37 36 32 30 31 26 15 8 7 8 8 6 4 3 3 4 4 2 0 0 0 0 0 1 1 1 0
0 0 0 0 0 0 0 1 2 4 8 16 28 35 36 36 41 48 52 52 51 48 46 43 38 35 35 30 20 12 10 12 14 14 12 8 7 8 6 2 0 0 1 1 0 0 0 0 0
0 0 0 0 0 0 0 1 3 4 7 15 27 38 43 45 50 56 59 57 55 55 56 51 42 36 34 31 23 17 17 21 22 23 20 14 12 11 8 3 2 2 1 0 0 0 0 0 0
0 0 0 0 0 0 0 1 3 3 5 12 25 38 49 55 57 62 65 62 60 63 65 58 48 41 37 33 28 24 26 27 28 29 27 21 17 15 10 7 7 7 4 2 2 2 1 0 0
0 0 0 0 0 0 0 1 2 2 2 8 22 39 53 59 62 66 70 67 65 71 72 63 55 50 44 38 34 31 29 28 28 29 31 28 23 19 14 12 16 14 9 6 4 3 1 1 1
0 0 0 0 0 0 0 0 1 0 1 6 20 41 56 62 66 72 75 73 72 77 78 70 63 58 52 45 43 40 35 30 26 28 34 35 31 25 18 17 23 21 16 12 9 6 4 3 2
0 0 0 0 0 0 0 0 0 0 1 7 21 39 55 65 72 78 81 80 80 84 85 79 71 65 58 52 51 50 45 37 29 29 37 40 36 30 22 22 26 24 21 20 17 11 6 3 2
0 0 0 0 0 0 1 1 2 3 3 8 20 35 50 65 78 83 84 85 86 89 89 83 78 74 66 59 56 55 53 45 38 36 38 38 34 30 27 25 27 26 24 24 22 16 9 3 1
0 0 0 0 0 0 0 2 5 8 7 8 18 31 44 60 77 85 86 87 88 87 84 81 81 80 74 66 61 59 57 51 45 40 37 35 33 31 29 28 30 30 28 26 24 19 13 7 3
0 0 0 0 0 0 0 2 7 11 9 8 14 26 38 52 70 82 85 85 83 77 75 77 80 80 77 71 68 65 61 56 49 42 35 34 35 33 31 30 33 34 32 30 28 25 20 14 9
0 0 0 0 0 0 0 2 6 10 10 8 13 22 31 42 59 74 79 79 75 70 71 73 74 75 73 70 70 68 64 61 55 47 38 33 34 34 31 31 35 37 35 34 34 32 26 20 17
0 0 0 0 0 0 0 2 6 10 11 11 14 20 24 31 47 63 71 72 70 70 71 70 68 66 63 64 66 66 62 60 56 49 40 34 32 33 33 34 36 38 37 36 36 34 28 24 23
0 0 0 0 0 0 1 4 8 11 12 14 16 18 21 26 39 53 63 68 69 70 70 68 65 61 57 58 61 59 56 53 49 45 40 36 34 34 36 38 37 37 36 35 36 33 29 27 27
0 0 0 0 0 0 2 6 9 10 12 14 14 16 20 26 35 45 57 66 69 68 67 65 63 59 56 55 54 52 48 47 47 45 41 39 37 36 37 37 35 35 36 37 37 34 30 29 27
0 0 0 0 0 0 1 4 9 12 12 11 12 14 19 25 30 39 53 63 66 64 62 60 58 55 53 50 47 43 42 45 49 48 44 42 40 38 36 34 32 32 35 38 39 36 32 28 27
0 0 0 0 0 0 1 3 9 12 10 9 12 16 20 23 28 36 48 57 59 58 56 54 50 47 46 45 42 41 41 43 47 47 43 41 40 38 36 33 30 27 28 30 32 31 27 23 22
0 0 0 0 0 0 1 4 8 10 9 10 15 21 23 24 29 37 46 52 53 53 52 50 46 42 42 42 41 42 43 43 44 44 41 39 37 35 34 32 26 21 20 23 24 22 19 17 16

GEFSSGP_con_probscp_174.txt.gz
Probability
0 0 0 0 0 0 0 0 0 0 0 1 2 2 1 0 0 0 0 0 0 0 0 0 0 0 0 0 0 0 0 0 0 0 0 0 0 0 0 0 0 0 0 0 0 0 0 0 0
0 0 0 0 0 0 0 0 0 1 1 2 2 1 0 0 0 0 0 0 0 0 0 0 0 0 0 0 0 0 0 0 0 0 0 0 0 0 0 0 0 0 0 0 0 0 0 0 0
0 0 0 0 0 0 0 0 1 2 3 3 2 0 0 1 1 0 0 0 0 0 0 0 0 0 0 0 0 0 0 0 0 0 0 0 0 0 0 0 0 0 0 0 0 0 0 0 0
0 0 0 0 0 0 0 0 1 4 7 6 3 1 1 2 3 2 0 0 0 0 0 0 0 0 0 0 0 0 0 0 0 0 0 0 0 0 0 0 0 0 0 0 0 0 0 0 0
0 0 0 0 0 0 0 0 4 9 11 9 6 3 2 5 7 4 1 0 1 1 1 1 0 0 0 0 0 0 0 0 0 0 0 0 0 0 0 0 0 0 1 1 1 0 0 0 0
0 0 0 0 0 0 0 1 6 12 13 10 8 6 5 8 9 6 2 1 1 1 2 2 1 0 0 0 0 0 0 0 0 0 0 0 0 0 0 0 0 0 1 1 1 0 0 0 0
0 0 0 0 0 0 0 1 6 10 11 9 8 7 7 9 9 7 4 2 1 3 3 2 1 0 0 0 0 0 0 0 0 0 0 0 0 0 0 0 0 0 0 1 1 0 0 0 0
0 0 0 0 0 0 0 1 4 7 9 8 6 6 8 11 13 11 7 4 4 4 4 3 1 0 0 0 0 0 0 0 0 0 0 0 0 0 0 0 0 0 0 0 0 0 0 0 0
0 0 0 0 0 0 0 1 4 7 9 9 8 9 12 18 22 18 11 7 6 6 6 4 2 0 0 1 1 0 0 0 0 0 0 0 0 0 0 0 0 0 0 0 0 0 0 0 0
0 0 0 0 0 0 0 1 4 7 11 13 15 16 18 24 28 23 14 9 7 7 7 4 1 0 1 2 2 1 0 0 0 0 0 0 0 0 0 0 0 0 0 0 0 0 0 0 0
0 0 0 0 0 0 0 1 3 6 9 14 18 20 22 25 25 21 13 10 8 7 7 5 2 0 1 2 2 1 0 0 0 0 0 0 0 0 0 0 0 0 0 0 0 0 0 0 0
0 0 0 0 0 0 0 1 4 6 8 12 17 19 22 22 20 16 13 12 11 9 8 7 4 1 1 2 2 1 0 0 0 0 0 0 0 0 0 0 0 0 0 0 0 0 0 0 0
0 0 0 0 0 0 1 3 6 7 10 13 15 18 19 18 18 16 14 14 14 12 9 7 4 2 2 2 1 0 0 0 0 0 0 0 0 0 0 0 0 0 0 0 0 0 0 0 0
0 0 0 0 0 1 3 4 6 8 12 14 14 16 17 18 21 20 17 17 18 16 11 6 3 3 3 2 1 0 0 0 0 0 0 0 0 0 0 0 0 0 0 0 0 0 0 0 0
0 0 0 0 0 2 4 6 7 11 14 13 12 14 17 19 24 26 23 21 21 19 14 8 5 5 5 4 1 0 0 0 0 0 0 0 0 0 0 0 0 0 0 0 0 0 0 0 0
0 0 0 0 0 2 4 5 9 16 18 15 12 12 16 20 24 30 30 27 26 25 20 16 13 11 10 7 4 1 1 1 0 0 0 0 0 0 0 0 0 0 0 0 0 0 0 0 0
0 0 0 0 0 1 2 3 8 16 22 21 16 13 15 21 26 32 35 34 33 32 29 25 22 18 14 12 8 5 3 1 1 1 0 0 0 0 0 0 0 0 0 0 0 0 0 0 0
0 0 0 0 0 0 1 3 7 15 21 24 21 17 17 23 31 38 41 42 41 39 34 30 27 24 19 15 12 7 3 1 2 3 3 3 3 2 1 0 0 0 0 0 0 0 0 0 0
0 0 0 0 0 0 1 4 8 12 19 26 29 27 27 33 41 47 51 51 50 45 38 33 30 28 24 19 12 7 5 3 3 4 5 6 7 5 3 1 1 1 0 0 0 0 0 0 0
0 0 0 0 0 0 1 4 7 11 18 30 38 39 43 48 53 56 57 59 58 53 45 39 36 32 28 21 12 7 6 5 4 4 5 7 8 7 4 2 2 2 1 0 0 0 0 0 0
0 0 0 0 0 0 1 3 6 11 20 31 40 45 50 57 62 63 62 64 64 57 50 45 40 34 27 20 13 8 7 8 7 5 5 6 7 8 5 3 2 1 1 0 0 0 0 0 0
0 0 0 0 0 0 0 1 4 11 20 30 38 44 50 58 66 69 68 69 68 61 54 48 42 35 27 20 15 10 10 11 10 8 6 6 7 8 6 4 2 0 0 0 0 0 1 1 0
0 0 0 0 0 0 0 0 2 8 17 26 35 45 52 58 69 74 74 72 69 65 60 53 44 35 27 21 17 12 11 12 11 9 7 7 7 7 7 6 3 0 0 0 1 1 2 2 1
0 0 0 0 0 0 0 0 1 5 11 19 32 45 53 60 69 74 73 69 65 62 61 57 48 37 29 24 19 14 11 11 10 9 8 7 7 7 7 7 5 1 0 1 2 3 3 3 3
0 0 0 0 0 0 0 0 1 3 7 14 27 40 49 56 63 67 65 62 58 57 58 57 51 41 35 29 22 15 11 10 9 9 7 6 7 7 7 6 6 3 2 2 3 3 3 3 3
0 0 0 0 0 0 0 1 2 4 6 13 24 36 44 51 56 58 57 55 52 51 54 55 51 45 41 34 23 14 10 8 7 6 5 4 5 6 6 6 6 6 4 4 3 3 3 3 3
0 0 0 0 0 0 0 1 4 6 7 13 22 31 39 46 51 52 51 50 49 49 50 50 48 44 40 33 22 13 9 8 6 4 4 4 4 4 4 5 6 7 6 4 3 3 3 3 3
0 0 0 0 0 0 0 1 3 5 7 10 17 25 32 40 46 46 45 45 48 48 46 44 42 39 34 29 22 14 10 9 8 6 6 5 4 3 3 4 6 7 7 5 4 3 2 2 2
0 0 0 0 0 0 0 1 2 4 6 10 16 22 27 33 39 41 42 43 45 45 41 38 37 34 30 26 20 15 12 11 10 9 9 8 6 4 3 4 6 7 7 6 5 3 1 1 1
0 0 0 0 0 0 1 1 1 2 6 12 19 24 27 30 34 40 43 43 42 40 38 36 35 32 28 22 17 14 12 11 11 11 11 9 6 4 3 4 6 7 6 6 6 4 1 0 0

GEFSSGP_con_probscp_180.txt.gz
Probability
0 0 0 0 0 0 0 0 1 2 2 2 1 1 1 0 0 0 0 0 0 0 0 0 0 0 0 0 0 0 0 0 0 0 0 0 0 0 1 1 0 0 0 0 0 0 0 0 0
0 0 0 0 0 0 0 0 0 1 2 2 2 1 1 1 0 0 0 0 0 0 0 0 0 0 0 0 0 0 0 0 0 0 0 0 0 1 2 1 0 0 0 0 0 0 0 0 0
0 0 0 0 0 0 0 0 0 0 1 3 3 2 1 1 0 0 0 0 0 0 0 0 0 0 0 0 0 0 0 0 0 0 0 0 1 2 2 1 0 1 1 0 0 0 0 0 0
0 0 0 0 0 0 0 0 0 0 1 2 3 2 1 0 0 0 0 0 0 0 0 0 0 0 0 0 0 0 0 0 0 0 0 1 1 1 1 1 1 2 2 1 0 0 0 0 0
0 0 0 0 0 0 0 0 0 1 1 3 4 3 1 0 0 0 0 0 0 0 0 0 0 0 0 0 0 0 0 0 0 0 0 0 0 0 1 1 2 2 2 1 0 0 0 0 0
0 0 0 0 0 0 0 0 1 2 3 4 6 4 1 0 1 2 1 0 0 0 0 0 0 0 0 0 0 0 0 0 0 0 0 0 0 0 0 1 1 1 1 0 0 0 0 0 0
0 0 0 0 0 0 0 0 1 4 5 5 6 5 3 1 2 3 2 1 0 0 0 0 0 0 0 0 0 0 0 0 0 0 0 0 0 0 0 0 0 0 0 0 0 0 0 0 0
0 0 0 0 0 0 0 0 2 5 7 6 5 6 4 3 4 5 4 1 0 0 1 0 0 0 0 0 0 0 0 0 0 0 0 0 0 0 0 0 0 0 0 0 0 0 0 0 0
0 0 0 0 0 0 0 0 2 5 7 6 4 6 8 8 7 8 7 3 2 1 1 0 0 0 0 0 0 0 0 0 0 0 0 0 0 0 0 0 0 0 0 0 0 0 0 0 0
0 0 0 0 0 0 0 1 2 5 6 5 6 12 17 15 9 8 7 5 5 4 3 1 0 0 0 0 0 0 0 0 0 0 0 0 0 0 0 0 0 0 0 0 0 0 0 0 0
0 0 0 0 0 0 0 1 3 5 5 5 12 23 28 20 10 5 4 4 6 6 4 1 0 0 0 0 0 0 0 0 0 0 0 0 0 0 0 0 0 0 0 0 0 0 0 0 0
0 0 0 0 0 0 0 1 2 4 4 7 17 28 29 20 9 3 1 2 4 4 3 1 0 0 0 0 0 0 0 0 0 0 0 0 0 0 0 0 0 0 0 0 0 0 0 0 0
0 0 0 0 0 0 0 0 1 3 5 11 18 23 22 16 9 3 1 1 2 3 3 2 1 0 0 0 0 0 0 0 0 0 0 0 0 0 0 0 0 0 0 0 0 0 0 0 0
0 0 0 0 0 0 0 0 1 2 7 14 18 17 15 13 9 5 2 1 2 3 3 2 1 0 0 1 1 0 0 0 0 0 0 0 0 0 0 0 0 0 0 0 0 0 0 0 0
0 0 0 0 0 0 0 0 1 2 7 13 15 14 11 9 8 7 4 4 4 3 2 1 1 0 1 2 2 1 0 0 0 0 0 0 0 0 0 0 0 0 0 0 0 0 0 0 0
0 0 0 0 0 0 0 0 0 1 5 9 10 9 7 5 4 5 5 7 7 5 4 3 2 2 2 3 3 2 1 0 0 0 0 0 0 0 0 0 0 0 0 0 0 0 0 0 0
0 0 0 0 0 0 0 0 0 2 5 7 7 6 5 3 1 2 5 9 9 7 6 5 4 4 3 3 3 2 1 0 0 0 0 0 0 0 0 0 0 0 0 0 0 0 0 0 0
0 0 0 0 0 0 0 0 2 4 5 7 6 5 4 2 1 3 6 9 10 10 9 9 7 4 2 2 2 1 0 0 0 0 0 0 0 0 1 1 0 0 0 0 0 0 0 0 0
0 0 0 0 0 0 0 1 3 4 4 5 5 4 2 1 2 5 9 12 14 13 13 13 11 7 3 1 1 0 0 1 0 0 0 0 0 1 2 2 1 0 0 0 0 0 0 0 0
0 0 0 0 0 0 0 1 2 2 2 2 2 2 1 1 4 8 13 18 20 18 16 15 15 11 5 2 1 0 1 1 0 0 0 0 0 1 2 2 2 1 0 0 0 0 0 0 0
0 0 0 0 0 0 0 2 2 1 0 0 1 1 1 3 6 10 16 22 24 21 18 18 16 11 7 4 3 2 2 2 1 1 1 1 1 1 1 1 2 2 1 0 0 0 0 0 0
0 0 0 0 0 0 0 1 1 0 0 0 1 1 3 6 8 11 18 25 28 26 22 20 16 10 6 4 4 5 6 5 3 3 2 2 1 1 1 2 2 1 1 0 0 0 0 0 0
0 0 0 0 0 0 0 0 0 0 0 1 3 4 6 8 9 13 19 26 31 31 28 24 20 13 7 6 7 8 8 7 5 5 4 2 2 2 2 2 2 1 1 1 0 0 0 0 1
0 0 0 0 0 0 0 0 0 0 1 2 4 7 8 9 11 15 20 27 33 35 32 29 25 19 13 10 11 11 10 8 6 5 5 3 2 2 2 2 2 3 2 1 0 0 0 1 2
0 0 0 0 0 0 0 0 0 0 1 2 5 9 11 12 14 17 22 28 35 37 36 34 31 25 19 16 15 14 12 10 8 5 4 3 1 1 1 1 2 3 3 2 0 0 0 1 2
0 0 0 0 0 0 0 0 0 0 0 2 7 11 13 13 15 18 23 31 37 39 40 39 36 30 24 21 18 15 12 10 8 5 3 2 1 0 0 1 2 3 3 2 1 0 0 1 1
0 0 0 0 0 0 0 0 0 0 0 3 8 11 12 13 15 18 24 31 37 39 41 42 40 33 28 26 22 16 11 9 7 5 4 3 2 1 0 0 1 1 3 3 1 0 0 0 0
0 0 0 0 0 0 0 0 0 0 0 2 6 9 11 14 16 19 24 33 38 39 39 40 39 34 30 29 25 19 12 9 7 6 5 4 3 2 1 0 0 1 2 3 3 2 1 1 0
0 0 0 0 0 0 0 0 0 0 0 1 3 7 12 16 18 20 25 33 40 41 39 38 35 31 29 28 25 20 14 10 8 6 5 4 3 4 4 2 1 1 2 5 5 5 4 2 1
0 0 0 0 0 0 0 0 0 0 1 1 2 5 12 17 19 21 25 32 39 41 39 36 33 29 27 27 24 18 14 12 9 6 5 4 3 4 5 4 3 2 3 5 6 6 6 3 1